Location: Bushey
(51.6333°N, 0.3667°W)
Time: 20:36:30
(UTC+00:00)

ARGOS - Pass Details

Date: 03 March 2021
Orbit: 819 x 835 km, 98.4° (Epoch: 16 April)

Event Time Altitude Azimuth Distance (km) Brightness Sun altitude
Rises 19:31:23 0° 185° (S) 3,369 6.3 -17.2°
Reaches altitude 10° 19:33:52 10° 192° (SSW) 2,441 5.6 -17.5°
Maximum altitude 19:38:59 42° 263° (W) 1,174 4.4 -18.3°
Drops below altitude 10° 19:44:10 10° 334° (NNW) 2,460 6.2 -19.1°
Sets 19:46:40 0° 341° (NNW) 3,399 6.8 -19.5°
